Weather History for Patuxent River, MD

Change the Weather History Date:

Sunday, April 7, 2013

  Actual Average Record
Temperature  
Mean Temperature 52 °F -  
Max Temperature 66 °F 57 °F 81 °F (2006)
Min Temperature 37 °F 40 °F 27 °F (1982)
Degree Days  
Heating Degree Days 14    
Growing Degree Days 2 (Base 50)    
Moisture  
Dew Point 40 °F    
Average Humidity 67    
Maximum Humidity 87    
Minimum Humidity 42    
Precipitation  
Precipitation 0.00 in - - ()
Sea Level Pressure  
Sea Level Pressure 30.18 in    
Wind  
Wind Speed 7 mph (SSE)    
Max Wind Speed 15 mph    
Max Gust Speed 20 mph    
Visibility 10 miles    
Events      
Averages and records for this station are not official NWS values.
T = Trace of Precipitation, MM = Missing Value Source: NWS Daily Summary

Daily Weather History Graph

Daily Weather History Graph

Search for Another Location

Airport:

Trip Planner

Search our weather history database for the weather conditions in past years. The results will help you decide how hot, cold, wet, or windy it might be!

Date:

Astronomy

Apr. 07, 2013 Rise Set
Actual Time 6:41 AM EDT 7:34 PM EDT
Civil Twilight 6:14 AM EDT 8:01 PM EDT
Nautical Twilight 5:42 AM EDT 8:33 PM EDT
Astronomical Twilight 5:09 AM EDT 9:06 PM EDT
Moon 4:55 AM EDT (4/7) 5:06 PM EDT (4/7)
Length of Visible Light 13h 47m
Length of Day
12h 53m
Waning Crescent, 8% of the Moon is Illuminated
Apr 7
Waning Crescent
Apr 10
New
Apr 18
First Quarter
Apr 25
Full
May 2
Last Quarter

Hourly Weather History & Observations

Time (EDT) Temp. Windchill Dew Point Humidity Pressure Visibility Wind Dir Wind Speed Gust Speed Precip Events Conditions
12:52 AM 42.1 °F 37.1 °F 34.0 °F 73% 30.32 in 10.0 mi SE 8.1 mph - N/A   Clear
1:52 AM 42.1 °F 37.7 °F 35.1 °F 76% 30.30 in 10.0 mi SSE 6.9 mph - N/A   Clear
2:52 AM 42.1 °F 37.7 °F 36.0 °F 79% 30.27 in 10.0 mi SE 6.9 mph - N/A   Clear
3:52 AM 43.0 °F 39.5 °F 36.0 °F 76% 30.26 in 10.0 mi SSE 5.8 mph - N/A   Clear
4:52 AM 39.9 °F - 35.1 °F 83% 30.27 in 10.0 mi Calm Calm - N/A   Clear
5:52 AM 37.9 °F - 34.0 °F 86% 30.28 in 10.0 mi Calm Calm - N/A   Clear
6:05 AM 39.2 °F 37.0 °F 35.6 °F 87% 30.27 in 10.0 mi SE 3.5 mph - N/A   Mostly Cloudy
6:52 AM 39.9 °F - 36.0 °F 86% 30.29 in 10.0 mi Calm Calm - N/A   Mostly Cloudy
7:52 AM 42.1 °F 39.2 °F 37.9 °F 85% 30.29 in 10.0 mi SSW 4.6 mph - N/A   Scattered Clouds
8:52 AM 46.9 °F - 39.9 °F 77% 30.28 in 10.0 mi SSE 6.9 mph - N/A   Scattered Clouds
9:52 AM 51.1 °F - 39.0 °F 63% 30.26 in 10.0 mi SSE 11.5 mph - N/A   Clear
10:52 AM 53.1 °F - 41.0 °F 64% 30.25 in 10.0 mi ESE 9.2 mph - N/A   Scattered Clouds
11:52 AM 53.1 °F - 43.0 °F 69% 30.22 in 10.0 mi ESE 15.0 mph - N/A   Scattered Clouds
12:52 PM 55.9 °F - 44.1 °F 64% 30.18 in 10.0 mi SE 12.7 mph 18.4 mph N/A   Mostly Cloudy
1:52 PM 60.1 °F - 43.0 °F 53% 30.14 in 10.0 mi SSE 9.2 mph 17.3 mph N/A   Overcast
2:52 PM 60.1 °F - 45.0 °F 57% 30.10 in 10.0 mi ESE 13.8 mph 19.6 mph N/A   Overcast
3:52 PM 57.9 °F - 45.0 °F 62% 30.08 in 10.0 mi ESE 10.4 mph - N/A   Overcast
4:52 PM 62.1 °F - 45.0 °F 53% 30.05 in 10.0 mi ESE 12.7 mph - N/A   Mostly Cloudy
5:52 PM 66.0 °F - 42.1 °F 42% 30.03 in 10.0 mi SSE 10.4 mph 18.4 mph N/A   Mostly Cloudy
6:52 PM 57.0 °F - 44.1 °F 62% 30.05 in 10.0 mi ESE 5.8 mph - N/A   Clear
7:52 PM 53.1 °F - 44.1 °F 71% 30.04 in 10.0 mi SE 6.9 mph - N/A   Clear
8:52 PM 57.9 °F - 43.0 °F 58% 30.05 in 10.0 mi South 5.8 mph - N/A   Clear
9:52 PM 62.1 °F - 41.0 °F 46% 30.05 in 10.0 mi South 9.2 mph 16.1 mph N/A   Clear
10:52 PM 62.1 °F - 41.0 °F 46% 30.05 in 10.0 mi SSW 12.7 mph 18.4 mph N/A   Clear
11:52 PM 61.0 °F - 39.9 °F 46% 30.06 in 10.0 mi SSW 10.4 mph - N/A   Clear